When you browse on this site, cookies collect data to enhance your experience and personalize the content and advertising you see.
Visit our Privacy Policy to learn more. By continuing to use the site, you agree to this use of cookies and data.

Previsão horária em Abaújszántó

Hoje, 25 Setembro, Sexta-feira

Tempo Temperatura Precipitação Vento Pressão Humidade
00:00 +16°C° 0 mm 0 m/s 739 mmHg 71%
01:00 +16°C° 0 mm 1 m/s 739 mmHg 77%
02:00 +16°C° 0 mm 1 m/s 738 mmHg 79%
03:00 +15°C° 0 mm 1 m/s 738 mmHg 81%
04:00 +15°C° 0 mm 1 m/s 737 mmHg 83%
05:00 +16°C° 0 mm 1 m/s 737 mmHg 80%
06:00 +16°C° 0 mm 1 m/s 736 mmHg 78%
07:00 +17°C° 0 mm 2 m/s 736 mmHg 72%
08:00 +19°C° 0 mm 2 m/s 736 mmHg 65%
09:00 +21°C° 0 mm 3 m/s 735 mmHg 58%
10:00 +24°C° 0 mm 3 m/s 735 mmHg 51%
11:00 +25°C° 0 mm 4 m/s 734 mmHg 48%
12:00 +26°C° 0 mm 5 m/s 734 mmHg 44%
13:00 +27°C° 0 mm 6 m/s 733 mmHg 41%
14:00 +23°C° 0.2 mm 5 m/s 733 mmHg 52%
15:00 +21°C° 0.2 mm 5 m/s 732 mmHg 64%
16:00 +19°C° 0.2 mm 5 m/s 731 mmHg 75%
17:00 +18°C° 0.6 mm 4 m/s 731 mmHg 80%
18:00 +18°C° 0.6 mm 3 m/s 731 mmHg 84%
19:00 +17°C° 0.6 mm 2 m/s 731 mmHg 89%
20:00 +17°C° 0.8 mm 2 m/s 730 mmHg 90%
21:00 +17°C° 0.8 mm 2 m/s 730 mmHg 90%
22:00 +17°C° 0.8 mm 2 m/s 730 mmHg 91%
23:00 +17°C° 0.4 mm 3 m/s 729 mmHg 92%

Amanhã, 26 Setembro, Sábado

Tempo Temperatura Precipitação Vento Pressão Humidade
00:00 +17°C° 0.4 mm 3 m/s 728 mmHg 92%
01:00 +16°C° 0.4 mm 3 m/s 728 mmHg 92%
02:00 +17°C° 0.6 mm 3 m/s 727 mmHg 92%
03:00 +17°C° 0.6 mm 3 m/s 727 mmHg 92%
04:00 +17°C° 0.6 mm 3 m/s 726 mmHg 92%
05:00 +17°C° 1 mm 4 m/s 726 mmHg 92%
06:00 +15°C° 1 mm 4 m/s 726 mmHg 92%
07:00 +15°C° 1 mm 4 m/s 726 mmHg 92%
08:00 +15°C° 2.1 mm 4 m/s 727 mmHg 89%
09:00 +16°C° 2.1 mm 3 m/s 727 mmHg 86%
10:00 +16°C° 2.1 mm 3 m/s 728 mmHg 84%
11:00 +17°C° 0.1 mm 3 m/s 728 mmHg 78%
12:00 +18°C° 0.1 mm 4 m/s 728 mmHg 72%
13:00 +18°C° 0.1 mm 4 m/s 729 mmHg 66%
14:00 +18°C° 0.3 mm 3 m/s 729 mmHg 69%
15:00 +17°C° 0.3 mm 3 m/s 729 mmHg 73%
16:00 +16°C° 0.3 mm 2 m/s 729 mmHg 77%
17:00 +15°C° 0.1 mm 2 m/s 729 mmHg 81%
18:00 +14°C° 0.1 mm 2 m/s 729 mmHg 85%
19:00 +13°C° 0.1 mm 1 m/s 730 mmHg 90%
20:00 +13°C° 0 mm 1 m/s 730 mmHg 89%
21:00 +13°C° 0 mm 1 m/s 730 mmHg 88%
22:00 +13°C° 0 mm 1 m/s 731 mmHg 87%
23:00 +12°C° 0 mm 1 m/s 731 mmHg 86%

Depois de amanhã, 27 Setembro, Domingo

Tempo Temperatura Precipitação Vento Pressão Humidade
00:00 +12°C° 0 mm 1 m/s 731 mmHg 85%
01:00 +12°C° 0 mm 1 m/s 731 mmHg 84%
02:00 +11°C° 0 mm 1 m/s 731 mmHg 84%
03:00 +11°C° 0 mm 1 m/s 731 mmHg 85%
04:00 +11°C° 0 mm 1 m/s 731 mmHg 85%
05:00 +11°C° 0 mm 1 m/s 732 mmHg 83%
06:00 +11°C° 0 mm 1 m/s 732 mmHg 82%
07:00 +10°C° 0 mm 2 m/s 732 mmHg 80%
08:00 +12°C° 0 mm 2 m/s 733 mmHg 74%
09:00 +13°C° 0 mm 2 m/s 734 mmHg 68%
10:00 +13°C° 0 mm 3 m/s 734 mmHg 62%
11:00 +14°C° 0 mm 4 m/s 735 mmHg 57%
12:00 +15°C° 0 mm 5 m/s 735 mmHg 52%
13:00 +16°C° 0 mm 6 m/s 736 mmHg 47%
14:00 +16°C° 0 mm 5 m/s 736 mmHg 49%
15:00 +16°C° 0 mm 5 m/s 737 mmHg 50%
16:00 +15°C° 0 mm 5 m/s 737 mmHg 52%
17:00 +14°C° 0 mm 4 m/s 737 mmHg 57%
18:00 +12°C° 0 mm 3 m/s 738 mmHg 62%
19:00 +12°C° 0 mm 2 m/s 739 mmHg 66%
20:00 +10°C° 0 mm 2 m/s 739 mmHg 67%
21:00 +11°C° 0 mm 1 m/s 740 mmHg 68%
22:00 +10°C° 0 mm 1 m/s 740 mmHg 68%
23:00 +10°C° 0 mm 1 m/s 740 mmHg 70%

28 Setembro, Segunda-feira

Tempo Temperatura Precipitação Vento Pressão Humidade
00:00 +10°C° 0 mm 1 m/s 740 mmHg 72%
01:00 +9°C° 0 mm 1 m/s 739 mmHg 73%
02:00 +9°C° 0 mm 2 m/s 739 mmHg 74%
03:00 +9°C° 0 mm 2 m/s 739 mmHg 74%
04:00 +9°C° 0 mm 3 m/s 739 mmHg 75%
05:00 +9°C° 0.4 mm 3 m/s 739 mmHg 77%
06:00 +8°C° 0.4 mm 4 m/s 738 mmHg 80%
07:00 +8°C° 0.4 mm 4 m/s 738 mmHg 83%
08:00 +10°C° 0.1 mm 3 m/s 738 mmHg 82%
09:00 +10°C° 0.1 mm 3 m/s 738 mmHg 81%
10:00 +12°C° 0.1 mm 2 m/s 738 mmHg 80%
11:00 +13°C° 0.1 mm 2 m/s 738 mmHg 78%
12:00 +14°C° 0.1 mm 2 m/s 738 mmHg 75%
13:00 +15°C° 0.1 mm 2 m/s 738 mmHg 72%
14:00 +14°C° 0.2 mm 2 m/s 738 mmHg 76%
15:00 +13°C° 0.2 mm 3 m/s 738 mmHg 80%
16:00 +13°C° 0.2 mm 3 m/s 738 mmHg 84%
17:00 +12°C° 1.1 mm 3 m/s 738 mmHg 88%
18:00 +13°C° 1.1 mm 2 m/s 738 mmHg 92%
19:00 +12°C° 1.1 mm 2 m/s 738 mmHg 96%
20:00 +12°C° 0.5 mm 2 m/s 738 mmHg 97%
21:00 +12°C° 0.5 mm 2 m/s 738 mmHg 97%
22:00 +12°C° 0.5 mm 1 m/s 738 mmHg 97%
23:00 +12°C° 0 mm 1 m/s 738 mmHg 97%

29 Setembro, Terça-feira

Tempo Temperatura Precipitação Vento Pressão Humidade
00:00 +12°C° 0 mm 1 m/s 738 mmHg 97%
01:00 +12°C° 0 mm 1 m/s 738 mmHg 96%
02:00 +12°C° 0 mm 1 m/s 738 mmHg 96%
03:00 +12°C° 0 mm 1 m/s 738 mmHg 96%
04:00 +13°C° 0 mm 1 m/s 739 mmHg 95%
05:00 +13°C° 0 mm 1 m/s 739 mmHg 94%
06:00 +13°C° 0 mm 1 m/s 739 mmHg 93%
07:00 +13°C° 0 mm 1 m/s 739 mmHg 91%
08:00 +14°C° 0 mm 1 m/s 739 mmHg 88%
09:00 +15°C° 0 mm 1 m/s 739 mmHg 84%
10:00 +15°C° 0 mm 1 m/s 739 mmHg 80%
11:00 +16°C° 0.4 mm 1 m/s 739 mmHg 78%
12:00 +16°C° 0.4 mm 2 m/s 739 mmHg 76%
13:00 +17°C° 0.4 mm 2 m/s 739 mmHg 73%
14:00 +17°C° 0.5 mm 2 m/s 739 mmHg 73%
15:00 +17°C° 0.5 mm 2 m/s 739 mmHg 73%
16:00 +16°C° 0.5 mm 2 m/s 739 mmHg 73%
17:00 +15°C° 0.3 mm 2 m/s 740 mmHg 77%
18:00 +14°C° 0.3 mm 2 m/s 740 mmHg 81%
19:00 +13°C° 0.3 mm 2 m/s 740 mmHg 85%
20:00 +13°C° 0 mm 2 m/s 740 mmHg 86%
21:00 +12°C° 0 mm 2 m/s 740 mmHg 87%
22:00 +12°C° 0 mm 2 m/s 740 mmHg 88%
23:00 +12°C° 0 mm 2 m/s 740 mmHg 88%

30 Setembro, Quarta-feira

Tempo Temperatura Precipitação Vento Pressão Humidade
00:00 +12°C° 0 mm 2 m/s 740 mmHg 88%
01:00 +10°C° 0 mm 3 m/s 740 mmHg 88%
02:00 +10°C° 0 mm 3 m/s 740 mmHg 87%
03:00 +10°C° 0 mm 3 m/s 739 mmHg 86%
04:00 +10°C° 0 mm 3 m/s 739 mmHg 85%
05:00 +10°C° 0 mm 3 m/s 739 mmHg 83%
06:00 +11°C° 0 mm 3 m/s 739 mmHg 81%
07:00 +11°C° 0 mm 3 m/s 739 mmHg 79%
08:00 +12°C° 0 mm 3 m/s 739 mmHg 75%
09:00 +13°C° 0 mm 3 m/s 739 mmHg 71%
10:00 +16°C° 0 mm 3 m/s 739 mmHg 68%
11:00 +16°C° 0 mm 3 m/s 738 mmHg 68%
12:00 +16°C° 0 mm 3 m/s 738 mmHg 68%
13:00 +16°C° 0 mm 3 m/s 738 mmHg 68%
14:00 +17°C° 0 mm 2 m/s 738 mmHg 67%
15:00 +17°C° 0 mm 2 m/s 738 mmHg 66%
16:00 +18°C° 0 mm 1 m/s 738 mmHg 66%
17:00 +16°C° 0 mm 2 m/s 738 mmHg 67%
18:00 +15°C° 0 mm 2 m/s 738 mmHg 69%
19:00 +13°C° 0 mm 3 m/s 738 mmHg 71%
20:00 +13°C° 0.1 mm 3 m/s 738 mmHg 72%
21:00 +13°C° 0.1 mm 3 m/s 738 mmHg 72%
22:00 +13°C° 0.1 mm 3 m/s 738 mmHg 72%
23:00 +14°C° 0.5 mm 2 m/s 737 mmHg 76%
Mostrar mais